| time (UTC) | temp C | wind direction | speed KPH | gust KPH | rain 1hr cm | rain 24hr cm | rain mn cm | humidity % | barometer mb |
| 20260507232521 | 11 | 203 | 3.2 | 8.0 | 0.00 | 0.00 | 0.00 | 83 | |
| 20260507232021 | 11 | 203 | 6.4 | 9.7 | 0.00 | 0.00 | 0.00 | 83 | |
| 20260507231521 | 11 | 180 | 4.8 | 6.4 | 0.00 | 0.00 | 0.00 | 83 | |
| 20260507231021 | 11 | 135 | 4.8 | 8.0 | 0.00 | 0.00 | 0.00 | 83 | |
| 20260507230541 | 11 | 135 | 4.8 | 9.7 | 0.00 | 0.00 | 0.00 | 83 | |
| 20260507230021 | 11 | 158 | 6.4 | 9.7 | 0.00 | 0.00 | 0.00 | 82 | |
| 20260507225521 | 11 | 180 | 4.8 | 8.0 | 0.00 | 0.00 | 0.00 | 82 | |
| 20260507225022 | 11 | 203 | 4.8 | 9.7 | 0.00 | 0.00 | 0.00 | 82 | |
| 20260507224530 | 11 | 203 | 3.2 | 6.4 | 0.00 | 0.00 | 0.00 | 82 | |
| 20260507224021 | 11 | 180 | 8.0 | 12.9 | 0.00 | 0.00 | 0.00 | 82 | |
| 20260507223602 | 11 | 180 | 8.0 | 14.5 | 0.00 | 0.00 | 0.00 | 81 | |
| 20260507223021 | 11 | 158 | 3.2 | 9.7 | 0.00 | 0.00 | 0.00 | 81 | |
| 20260507222522 | 11 | 135 | 3.2 | 16.1 | 0.00 | 0.00 | 0.00 | 81 | |
| 20260507222022 | 11 | 180 | 11.3 | 16.1 | 0.00 | 0.00 | 0.00 | 81 | |
| 20260507221521 | 11 | 180 | 9.7 | 12.9 | 0.00 | 0.00 | 0.00 | 80 | |
| 20260507221046 | 11 | 180 | 11.3 | 14.5 | 0.00 | 0.00 | 0.00 | 80 | |
| 20260507220534 | 11 | 180 | 11.3 | 17.7 | 0.00 | 0.00 | 0.00 | 81 | |
| 20260507220025 | 11 | 180 | 12.9 | 17.7 | 0.00 | 0.00 | 0.00 | 81 | |
| 20260507215525 | 11 | 180 | 8.0 | 14.5 | 0.00 | 0.00 | 0.00 | 81 | |
| 20260507215042 | 11 | 180 | 4.8 | 11.3 | 0.00 | 0.00 | 0.00 | 81 | |
| 20260507214541 | 12 | 180 | 8.0 | 16.1 | 0.00 | 0.00 | 0.00 | 81 | |
| 20260507214028 | 11 | 180 | 6.4 | 14.5 | 0.00 | 0.00 | 0.00 | 81 | |
| 20260507213521 | 11 | 180 | 9.7 | 16.1 | 0.00 | 0.00 | 0.00 | 81 | |
| 20260507212021 | 11 | 180 | 12.9 | 19.3 | 0.00 | 0.00 | 0.00 | 81 | |
| 20260507211532 | 11 | 180 | 11.3 | 17.7 | 0.00 | 0.00 | 0.00 | 81 | |
| 20260507211021 | 11 | 180 | 11.3 | 17.7 | 0.00 | 0.00 | 0.00 | 81 | |
| 20260507210521 | 11 | 158 | 14.5 | 19.3 | 0.00 | 0.00 | 0.00 | 82 | |
| 20260507210021 | 11 | 158 | 12.9 | 17.7 | 0.00 | 0.00 | 0.00 | 81 | |
| 20260507205525 | 11 | 158 | 16.1 | 17.7 | 0.00 | 0.00 | 0.00 | 81 | |
| 20260507205021 | 11 | 158 | 16.1 | 24.1 | 0.00 | 0.00 | 0.00 | 81 | |
| 20260507204521 | 11 | 158 | 17.7 | 22.5 | 0.00 | 0.00 | 0.00 | 81 | |
| 20260507204044 | 11 | 180 | 16.1 | 24.1 | 0.00 | 0.00 | 0.00 | 81 | |
| 20260507203521 | 11 | 158 | 14.5 | 19.3 | 0.00 | 0.00 | 0.00 | 81 | |
| 20260507203020 | 11 | 135 | 9.7 | 14.5 | 0.00 | 0.00 | 0.00 | 82 | |
| 20260507202525 | 11 | 158 | 12.9 | 20.9 | 0.00 | 0.00 | 0.00 | 81 | |
| 20260507200023 | 11 | 180 | 16.1 | 22.5 | 0.00 | 0.00 | 0.00 | 82 | |
| 20260507195521 | 11 | 180 | 17.7 | 24.1 | 0.00 | 0.00 | 0.00 | 83 | |
| 20260507195021 | 11 | 180 | 19.3 | 27.4 | 0.00 | 0.00 | 0.00 | 82 | |
| 20260507194520 | 11 | 158 | 17.7 | 27.4 | 0.00 | 0.00 | 0.00 | 83 | |
| 20260507194021 | 11 | 158 | 22.5 | 29.0 | 0.00 | 0.00 | 0.00 | 83 | |
| 20260507193521 | 11 | 158 | 22.5 | 27.4 | 0.00 | 0.00 | 0.00 | 82 | |
| 20260507193021 | 11 | 180 | 22.5 | 29.0 | 0.00 | 0.00 | 0.00 | 82 | |
| 20260507192520 | 11 | 158 | 17.7 | 25.7 | 0.00 | 0.00 | 0.00 | 82 | |
| 20260507191021 | 11 | 180 | 22.5 | 27.4 | 0.00 | 0.00 | 0.00 | 82 | |
| 20260507190521 | 12 | 180 | 20.9 | 27.4 | 0.00 | 0.00 | 0.00 | 82 | |
| 20260507190024 | 12 | 180 | 22.5 | 27.4 | 0.00 | 0.00 | 0.00 | 81 | |
| 20260507185521 | 12 | 180 | 20.9 | 25.7 | 0.00 | 0.00 | 0.00 | 81 | |
| 20260507185029 | 12 | 180 | 19.3 | 24.1 | 0.00 | 0.00 | 0.00 | 80 | |
| 20260507184021 | 12 | 180 | 19.3 | 25.7 | 0.00 | 0.00 | 0.00 | 80 | |
| 20260507183020 | 12 | 180 | 17.7 | 22.5 | 0.00 | 0.00 | 0.00 | 80 | |
| 20260507182520 | 12 | 180 | 17.7 | 22.5 | 0.00 | 0.00 | 0.00 | 79 | |
| 20260507182021 | 12 | 180 | 19.3 | 22.5 | 0.00 | 0.00 | 0.00 | 79 | |
| 20260507181528 | 12 | 180 | 17.7 | 22.5 | 0.00 | 0.00 | 0.00 | 79 | |
| 20260507181034 | 12 | 180 | 16.1 | 19.3 | 0.00 | 0.00 | 0.00 | 79 | |
| 20260507180526 | 12 | 180 | 17.7 | 22.5 | 0.00 | 0.00 | 0.00 | 79 | |
| 20260507180024 | 12 | 180 | 14.5 | 19.3 | 0.00 | 0.00 | 0.00 | 80 | |
| 20260507175520 | 12 | 180 | 17.7 | 20.9 | 0.00 | 0.00 | 0.00 | 80 | |
| 20260507175023 | 12 | 180 | 17.7 | 20.9 | 0.00 | 0.00 | 0.00 | 79 | |
| 20260507174520 | 12 | 180 | 17.7 | 20.9 | 0.00 | 0.00 | 0.00 | 78 | |
| 20260507174021 | 12 | 180 | 19.3 | 20.9 | 0.00 | 0.00 | 0.00 | 78 | |
| 20260507173522 | 12 | 180 | 14.5 | 19.3 | 0.00 | 0.00 | 0.00 | 78 | |
| 20260507173020 | 12 | 203 | 14.5 | 16.1 | 0.00 | 0.00 | 0.00 | 78 | |
| 20260507172541 | 12 | 180 | 14.5 | 16.1 | 0.00 | 0.00 | 0.00 | 79 | |
| 20260507172024 | 11 | 203 | 16.1 | 17.7 | 0.00 | 0.00 | 0.00 | 80 | |
| 20260507171521 | 11 | 203 | 14.5 | 19.3 | 0.00 | 0.00 | 0.00 | 80 | |
| 20260507171020 | 11 | 203 | 17.7 | 22.5 | 0.00 | 0.00 | 0.00 | 79 | |
| 20260507170520 | 11 | 203 | 17.7 | 22.5 | 0.00 | 0.00 | 0.00 | 80 | |
| 20260507170040 | 11 | 203 | 19.3 | 22.5 | 0.00 | 0.00 | 0.00 | 79 | |
| 20260507165541 | 11 | 203 | 16.1 | 22.5 | 0.00 | 0.00 | 0.00 | 80 | |
| 20260507165021 | 11 | 203 | 16.1 | 19.3 | 0.00 | 0.00 | 0.00 | 80 | |
| 20260507164521 | 11 | 203 | 17.7 | 22.5 | 0.00 | 0.00 | 0.00 | 79 | |
| 20260507164020 | 11 | 203 | 17.7 | 20.9 | 0.00 | 0.00 | 0.00 | 78 | |
| 20260507163541 | 11 | 203 | 17.7 | 20.9 | 0.00 | 0.00 | 0.00 | 78 | |
| 20260507163020 | 11 | 203 | 16.1 | 17.7 | 0.00 | 0.00 | 0.00 | 78 | |
| 20260507162522 | 11 | 180 | 14.5 | 17.7 | 0.00 | 0.00 | 0.00 | 79 | |
| 20260507162020 | 11 | 180 | 16.1 | 17.7 | 0.00 | 0.00 | 0.00 | 77 | |
| 20260507161540 | 11 | 203 | 16.1 | 19.3 | 0.00 | 0.00 | 0.00 | 78 | |
| 20260507161040 | 11 | 203 | 14.5 | 17.7 | 0.00 | 0.00 | 0.00 | 78 | |
| 20260507160023 | 11 | 180 | 14.5 | 16.1 | 0.00 | 0.00 | 0.00 | 78 | |
| 20260507155520 | 11 | 203 | 14.5 | 16.1 | 0.00 | 0.00 | 0.00 | 78 | |
| 20260507155020 | 11 | 203 | 16.1 | 19.3 | 0.00 | 0.00 | 0.00 | 77 | |
| 20260507154600 | 11 | 203 | 17.7 | 22.5 | 0.00 | 0.00 | 0.00 | 76 | |
| 20260507154020 | 11 | 203 | 19.3 | 25.7 | 0.00 | 0.00 | 0.00 | 74 | |
| 20260507153524 | 12 | 203 | 19.3 | 25.7 | 0.00 | 0.00 | 0.00 | 72 | |
| 20260507153022 | 13 | 203 | 14.5 | 24.1 | 0.00 | 0.00 | 0.00 | 66 | |
| 20260507152524 | 13 | 68 | 9.7 | 16.1 | 0.00 | 0.00 | 0.00 | 67 | |
| 20260507152022 | 14 | 68 | 11.3 | 16.1 | 0.00 | 0.00 | 0.00 | 62 | |
| 20260507151542 | 15 | 23 | 9.7 | 17.7 | 0.00 | 0.00 | 0.00 | 61 | |
| 20260507151027 | 15 | 45 | 12.9 | 19.3 | 0.00 | 0.00 | 0.00 | 61 | |
| 20260507150527 | 15 | 23 | 14.5 | 20.9 | 0.00 | 0.00 | 0.00 | 60 | |
| 20260507150023 | 15 | 23 | 14.5 | 19.3 | 0.00 | 0.00 | 0.00 | 59 | |
| 20260507145522 | 15 | 23 | 12.9 | 17.7 | 0.00 | 0.00 | 0.00 | 60 | |
| 20260507145022 | 15 | 23 | 11.3 | 16.1 | 0.00 | 0.00 | 0.00 | 60 | |
| 20260507144520 | 15 | 23 | 11.3 | 16.1 | 0.00 | 0.00 | 0.00 | 62 | |
| 20260507144203 | 15 | 338 | 9.7 | 16.1 | 0.00 | 0.00 | 0.00 | 63 | |
| 20260507143522 | 15 | 23 | 12.9 | 16.1 | 0.00 | 0.00 | 0.00 | 63 | |
| 20260507143022 | 15 | 23 | 8.0 | 12.9 | 0.00 | 0.00 | 0.00 | 63 | |
| 20260507142522 | 15 | 338 | 8.0 | 14.5 | 0.00 | 0.00 | 0.00 | 63 | |
| 20260507142022 | 15 | 23 | 6.4 | 12.9 | 0.00 | 0.00 | 0.00 | 64 | |
| 20260507141522 | 15 | 338 | 11.3 | 16.1 | 0.00 | 0.00 | 0.00 | 66 | |
| 20260507141027 | 15 | 338 | 11.3 | 17.7 | 0.00 | 0.00 | 0.00 | 67 | |
| 20260507140525 | 14 | 338 | 11.3 | 16.1 | 0.00 | 0.00 | 0.00 | 68 | |
| 20260507140037 | 14 | 23 | 9.7 | 16.1 | 0.00 | 0.00 | 0.00 | 70 | |
| 20260507135521 | 13 | 338 | 11.3 | 16.1 | 0.00 | 0.00 | 0.00 | 71 | |
| 20260507134522 | 13 | 338 | 12.9 | 17.7 | 0.00 | 0.00 | 0.00 | 71 | |
| 20260507134022 | 13 | 338 | 12.9 | 20.9 | 0.00 | 0.00 | 0.00 | 71 | |
| 20260507133522 | 13 | 338 | 16.1 | 20.9 | 0.00 | 0.00 | 0.00 | 72 | |
| 20260507133022 | 13 | 338 | 12.9 | 19.3 | 0.00 | 0.00 | 0.00 | 74 | |
| 20260507132521 | 12 | 338 | 16.1 | 20.9 | 0.00 | 0.00 | 0.00 | 74 | |
| 20260507132022 | 12 | 338 | 14.5 | 19.3 | 0.00 | 0.00 | 0.00 | 76 | |
| 20260507131522 | 12 | 338 | 12.9 | 16.1 | 0.00 | 0.00 | 0.00 | 78 | |
| 20260507131022 | 12 | 338 | 12.9 | 17.7 | 0.00 | 0.00 | 0.00 | 80 | |
| 20260507130523 | 11 | 315 | 11.3 | 16.1 | 0.00 | 0.00 | 0.00 | 81 | |
| 20260507130043 | 11 | 315 | 12.9 | 17.7 | 0.00 | 0.00 | 0.00 | 82 | |
| 20260507125522 | 11 | 315 | 14.5 | 22.5 | 0.00 | 0.00 | 0.00 | 83 | |
| 20260507125024 | 10 | 315 | 16.1 | 22.5 | 0.00 | 0.00 | 0.00 | 84 | |
| 20260507124523 | 10 | 338 | 17.7 | 22.5 | 0.00 | 0.00 | 0.00 | 85 | |
| 20260507124020 | 10 | 338 | 17.7 | 22.5 | 0.00 | 0.00 | 0.00 | 85 | |
| 20260507123521 | 10 | 338 | 17.7 | 20.9 | 0.00 | 0.00 | 0.00 | 86 | |
| 20260507123102 | -17 | 338 | 16.1 | 20.9 | 0.00 | 0.00 | 0.00 | ||
| 20260507122521 | -17 | 338 | 17.7 | 24.1 | 0.00 | 0.00 | 0.00 | ||
| 20260507122026 | -17 | 338 | 17.7 | 22.5 | 0.00 | 0.00 | 0.00 | ||
| 20260507121521 | -17 | 338 | 17.7 | 24.1 | 0.00 | 0.00 | 0.00 | ||
| 20260507121022 | -17 | 338 | 16.1 | 20.9 | 0.00 | 0.00 | 0.00 | ||
| 20260507120531 | -17 | 338 | 14.5 | 20.9 | 0.00 | 0.00 | 0.00 | ||
| 20260507120024 | -17 | 338 | 14.5 | 20.9 | 0.00 | 0.00 | 0.00 | ||
| 20260507115521 | -17 | 338 | 14.5 | 20.9 | 0.00 | 0.00 | 0.00 | ||
| 20260507115044 | -17 | 338 | 14.5 | 19.3 | 0.00 | 0.00 | 0.00 | ||
| 20260507114522 | -17 | 338 | 17.7 | 22.5 | 0.00 | 0.00 | 0.00 | ||
| 20260507114041 | -17 | 338 | 14.5 | 19.3 | 0.00 | 0.00 | 0.00 | ||
| 20260507113525 | -17 | 338 | 14.5 | 20.9 | 0.00 | 0.00 | 0.00 | ||
| 20260507113023 | -17 | 338 | 12.9 | 19.3 | 0.00 | 0.00 | 0.00 | ||
| 20260507112522 | -17 | 338 | 12.9 | 16.1 | 0.00 | 0.00 | 0.00 | ||
| 20260507111521 | -17 | 338 | 9.7 | 16.1 | 0.00 | 0.00 | 0.00 | ||
| 20260507111024 | -17 | 338 | 8.0 | 12.9 | 0.00 | 0.00 | 0.00 | ||
| 20260507110542 | -17 | 315 | 8.0 | 12.9 | 0.00 | 0.00 | 0.00 | ||
| 20260507110022 | -17 | 315 | 9.7 | 14.5 | 0.00 | 0.00 | 0.00 | ||
| 20260507105522 | -17 | 315 | 11.3 | 17.7 | 0.00 | 0.00 | 0.00 | ||
| 20260507105022 | -17 | 315 | 11.3 | 16.1 | 0.00 | 0.00 | 0.00 | ||
| 20260507104021 | -17 | 338 | 11.3 | 16.1 | 0.00 | 0.00 | 0.00 | ||
| 20260507103524 | -17 | 315 | 14.5 | 20.9 | 0.00 | 0.00 | 0.00 | ||
| 20260507103021 | -17 | 338 | 16.1 | 20.9 | 0.00 | 0.00 | 0.00 | ||
| 20260507102525 | -17 | 338 | 17.7 | 22.5 | 0.00 | 0.00 | 0.00 | ||
| 20260507102022 | -17 | 338 | 16.1 | 22.5 | 0.00 | 0.00 | 0.00 | ||
| 20260507101542 | -17 | 338 | 16.1 | 20.9 | 0.00 | 0.00 | 0.00 | ||
| 20260507101024 | -17 | 338 | 17.7 | 20.9 | 0.00 | 0.00 | 0.00 | ||
| 20260507100543 | -17 | 338 | 19.3 | 22.5 | 0.00 | 0.00 | 0.00 | ||
| 20260507100023 | -17 | 338 | 19.3 | 22.5 | 0.00 | 0.00 | 0.00 | ||
| 20260507095521 | -17 | 338 | 22.5 | 29.0 | 0.00 | 0.00 | 0.00 | ||
| 20260507095041 | -17 | 338 | 20.9 | 27.4 | 0.00 | 0.00 | 0.00 | ||
| 20260507094528 | -17 | 338 | 20.9 | 27.4 | 0.00 | 0.00 | 0.00 | ||
| 20260507094120 | -17 | 338 | 22.5 | 30.6 | 0.00 | 0.00 | 0.00 | ||
| 20260507093521 | -17 | 338 | 20.9 | 29.0 | 0.00 | 0.00 | 0.00 | ||
| 20260507093021 | -17 | 338 | 19.3 | 25.7 | 0.00 | 0.00 | 0.00 | ||
| 20260507092521 | -17 | 338 | 16.1 | 24.1 | 0.00 | 0.00 | 0.00 | ||
| 20260507092021 | -17 | 315 | 19.3 | 27.4 | 0.00 | 0.00 | 0.00 | ||
| 20260507091541 | -17 | 315 | 17.7 | 27.4 | 0.00 | 0.00 | 0.00 | ||
| 20260507091022 | -17 | 315 | 17.7 | 24.1 | 0.00 | 0.00 | 0.00 | ||
| 20260507090521 | -17 | 315 | 16.1 | 25.7 | 0.00 | 0.00 | 0.00 | ||
| 20260507090021 | -17 | 315 | 16.1 | 24.1 | 0.00 | 0.00 | 0.00 | ||
| 20260507085521 | -17 | 315 | 14.5 | 20.9 | 0.00 | 0.00 | 0.00 | ||
| 20260507084521 | -17 | 315 | 16.1 | 27.4 | 0.00 | 0.00 | 0.00 | ||
| 20260507084023 | -17 | 315 | 19.3 | 29.0 | 0.00 | 0.00 | 0.00 | ||
| 20260507083522 | -17 | 315 | 16.1 | 24.1 | 0.00 | 0.00 | 0.00 | ||
| 20260507083022 | -17 | 315 | 19.3 | 29.0 | 0.00 | 0.00 | 0.00 | ||
| 20260507082545 | -17 | 315 | 24.1 | 35.4 | 0.00 | 0.00 | 0.00 | ||
| 20260507081526 | -17 | 315 | 22.5 | 33.8 | 0.00 | 0.00 | 0.00 | ||
| 20260507081041 | -17 | 315 | 20.9 | 32.2 | 0.00 | 0.00 | 0.00 | ||
| 20260507080529 | -17 | 315 | 20.9 | 33.8 | 0.00 | 0.00 | 0.00 | ||
| 20260507080023 | -17 | 315 | 22.5 | 33.8 | 0.00 | 0.00 | 0.00 | ||
| 20260507075530 | -17 | 315 | 22.5 | 30.6 | 0.00 | 0.00 | 0.00 | ||
| 20260507075021 | -17 | 315 | 22.5 | 30.6 | 0.00 | 0.00 | 0.00 | ||
| 20260507074528 | -17 | 315 | 22.5 | 32.2 | 0.00 | 0.00 | 0.00 | ||
| 20260507074027 | -17 | 315 | 19.3 | 29.0 | 0.00 | 0.00 | 0.00 | ||
| 20260507073542 | -17 | 315 | 17.7 | 29.0 | 0.00 | 0.00 | 0.00 | ||
| 20260507073041 | -17 | 315 | 16.1 | 22.5 | 0.00 | 0.00 | 0.00 | ||
| 20260507072521 | -17 | 315 | 12.9 | 22.5 | 0.00 | 0.00 | 0.00 | ||
| 20260507072025 | -17 | 293 | 11.3 | 20.9 | 0.00 | 0.00 | 0.00 | ||
| 20260507071521 | -17 | 293 | 11.3 | 17.7 | 0.00 | 0.00 | 0.00 | ||
| 20260507071021 | -17 | 293 | 9.7 | 17.7 | 0.00 | 0.00 | 0.00 | ||
| 20260507070542 | -17 | 293 | 12.9 | 24.1 | 0.00 | 0.00 | 0.00 | ||
| 20260507070021 | -17 | 293 | 14.5 | 24.1 | 0.00 | 0.00 | 0.00 | ||
| 20260507065521 | -17 | 293 | 11.3 | 19.3 | 0.00 | 0.00 | 0.00 | ||
| 20260507065021 | -17 | 315 | 11.3 | 19.3 | 0.00 | 0.00 | 0.00 | ||
| 20260507064521 | -17 | 315 | 11.3 | 17.7 | 0.00 | 0.00 | 0.00 | ||
| 20260507064022 | -17 | 315 | 8.0 | 14.5 | 0.00 | 0.00 | 0.00 | ||
| 20260507063521 | -17 | 315 | 6.4 | 14.5 | 0.00 | 0.00 | 0.00 | ||
| 20260507063020 | -17 | 293 | 8.0 | 16.1 | 0.00 | 0.00 | 0.00 | ||
| 20260507062522 | -17 | 315 | 11.3 | 17.7 | 0.00 | 0.00 | 0.00 | ||
| 20260507062021 | -17 | 315 | 14.5 | 24.1 | 0.00 | 0.00 | 0.00 | ||
| 20260507061531 | -17 | 315 | 12.9 | 20.9 | 0.00 | 0.00 | 0.00 | ||
| 20260507061021 | -17 | 315 | 11.3 | 20.9 | 0.00 | 0.00 | 0.00 | ||
| 20260507060535 | -17 | 315 | 14.5 | 20.9 | 0.00 | 0.00 | 0.00 | ||
| 20260507060023 | -17 | 315 | 16.1 | 25.7 | 0.00 | 0.00 | 0.00 | ||
| 20260507055521 | -17 | 315 | 17.7 | 24.1 | 0.00 | 0.00 | 0.00 | ||
| 20260507055021 | -17 | 315 | 17.7 | 25.7 | 0.00 | 0.00 | 0.00 | ||
| 20260507054521 | -17 | 315 | 16.1 | 27.4 | 0.00 | 0.00 | 0.00 | ||
| 20260507054021 | -17 | 315 | 17.7 | 25.7 | 0.00 | 0.00 | 0.00 | ||
| 20260507053520 | -17 | 315 | 20.9 | 32.2 | 0.00 | 0.00 | 0.00 | ||
| 20260507053024 | -17 | 315 | 20.9 | 32.2 | 0.00 | 0.00 | 0.00 | ||
| 20260507052619 | -17 | 315 | 19.3 | 27.4 | 0.00 | 0.00 | 0.00 | ||
| 20260507052025 | -17 | 315 | 16.1 | 24.1 | 0.00 | 0.00 | 0.00 | ||
| 20260507051521 | -17 | 315 | 9.7 | 22.5 | 0.00 | 0.00 | 0.00 | ||
| 20260507051021 | -17 | 270 | 8.0 | 12.9 | 0.00 | 0.00 | 0.00 | ||
| 20260507050521 | -17 | 248 | 12.9 | 16.1 | 0.00 | 0.00 | 0.00 | ||
| 20260507050044 | -17 | 248 | 12.9 | 16.1 | 0.00 | 0.00 | 0.00 | ||
| 20260507045520 | -17 | 270 | 12.9 | 19.3 | 0.00 | 0.00 | 0.00 | ||
| 20260507045043 | -17 | 270 | 17.7 | 24.1 | 0.00 | 0.00 | 0.00 | ||
| 20260507044520 | -17 | 270 | 16.1 | 20.9 | 0.00 | 0.00 | 0.00 | ||
| 20260507044059 | -17 | 248 | 16.1 | 22.5 | 0.00 | 0.00 | 0.00 | ||
| 20260507043024 | -17 | 225 | 16.1 | 20.9 | 0.00 | 0.00 | 0.00 | ||
| 20260507042520 | -17 | 248 | 16.1 | 24.1 | 0.00 | 0.00 | 0.00 | ||
| 20260507042021 | -17 | 225 | 19.3 | 25.7 | 0.00 | 0.00 | 0.00 | ||
| 20260507041545 | -17 | 225 | 17.7 | 25.7 | 0.00 | 0.00 | 0.00 | ||
| 20260507041021 | -17 | 225 | 12.9 | 25.7 | 0.00 | 0.00 | 0.00 | ||
| 20260507040539 | -17 | 225 | 14.5 | 22.5 | 0.00 | 0.00 | 0.00 | ||
| 20260507040028 | -17 | 225 | 14.5 | 24.1 | 0.00 | 0.00 | 0.00 | ||
| 20260507035542 | -17 | 248 | 17.7 | 24.1 | 0.00 | 0.00 | 0.00 | ||
| 20260507035021 | -17 | 248 | 17.7 | 24.1 | 0.00 | 0.00 | 0.00 | ||
| 20260507034021 | -17 | 248 | 19.3 | 24.1 | 0.00 | 0.00 | 0.00 | ||
| 20260507033521 | -17 | 248 | 19.3 | 24.1 | 0.00 | 0.00 | 0.00 | ||
| 20260507033042 | -17 | 225 | 20.9 | 25.7 | 0.00 | 0.00 | 0.00 | ||
| 20260507032022 | -17 | 225 | 20.9 | 25.7 | 0.00 | 0.00 | 0.00 | ||
| 20260507031526 | -17 | 225 | 20.9 | 27.4 | 0.00 | 0.00 | 0.00 | ||
| 20260507031021 | -17 | 225 | 20.9 | 29.0 | 0.00 | 0.00 | 0.00 | ||
| 20260507030541 | -17 | 225 | 22.5 | 29.0 | 0.00 | 0.00 | 0.00 | ||
| 20260507030025 | -17 | 225 | 22.5 | 29.0 | 0.00 | 0.00 | 0.00 | ||
| 20260507024521 | -17 | 248 | 20.9 | 30.6 | 0.00 | 0.00 | 0.00 | ||
| 20260507024024 | -17 | 225 | 20.9 | 27.4 | 0.00 | 0.00 | 0.00 | ||
| 20260507023524 | -17 | 225 | 19.3 | 27.4 | 0.00 | 0.00 | 0.00 | ||
| 20260507023021 | -17 | 225 | 16.1 | 25.7 | 0.00 | 0.00 | 0.00 | ||
| 20260507022541 | -17 | 225 | 14.5 | 24.1 | 0.00 | 0.00 | 0.00 | ||
| 20260507022021 | -17 | 225 | 19.3 | 25.7 | 0.00 | 0.00 | 0.00 | ||
| 20260507021522 | -17 | 225 | 19.3 | 27.4 | 0.00 | 0.00 | 0.00 | ||
| 20260507021022 | -17 | 225 | 16.1 | 24.1 | 0.00 | 0.00 | 0.00 | ||
| 20260507015525 | -17 | 225 | 17.7 | 25.7 | 0.00 | 0.00 | 0.00 | ||
| 20260507015023 | -17 | 225 | 16.1 | 24.1 | 0.00 | 0.00 | 0.00 | ||
| 20260507014521 | -17 | 225 | 16.1 | 25.7 | 0.00 | 0.00 | 0.00 | ||
| 20260507014021 | -17 | 225 | 16.1 | 24.1 | 0.00 | 0.00 | 0.00 | ||
| 20260507013606 | -17 | 225 | 14.5 | 24.1 | 0.00 | 0.00 | 0.00 | ||
| 20260507013021 | -17 | 225 | 16.1 | 25.7 | 0.00 | 0.00 | 0.00 | ||
| 20260507012523 | -17 | 225 | 16.1 | 25.7 | 0.00 | 0.00 | 0.00 | ||
| 20260507012021 | -17 | 225 | 19.3 | 29.0 | 0.00 | 0.00 | 0.00 | ||
| 20260507011521 | -17 | 225 | 20.9 | 29.0 | 0.00 | 0.00 | 0.00 | ||
| 20260507011059 | -17 | 225 | 19.3 | 29.0 | 0.00 | 0.00 | 0.00 | ||
| 20260507010521 | -17 | 225 | 20.9 | 29.0 | 0.00 | 0.00 | 0.00 | ||
| 20260507010022 | -17 | 225 | 22.5 | 30.6 | 0.00 | 0.00 | 0.00 | ||
| 20260507003521 | -17 | 203 | 29.0 | 35.4 | 0.00 | 0.00 | 0.00 | ||
| 20260507003023 | -17 | 203 | 29.0 | 33.8 | 0.00 | 0.00 | 0.00 | ||
| 20260507002521 | -17 | 203 | 29.0 | 35.4 | 0.00 | 0.00 | 0.00 | ||
| 20260507002021 | -17 | 203 | 29.0 | 33.8 | 0.00 | 0.00 | 0.00 | ||
| 20260507001521 | -17 | 203 | 30.6 | 35.4 | 0.00 | 0.00 | 0.00 | ||
| 20260507001021 | -17 | 203 | 30.6 | 35.4 | 0.00 | 0.00 | 0.00 | ||
| 20260507000523 | -17 | 203 | 32.2 | 40.2 | 0.00 | 0.00 | 0.00 | ||
| 20260507000023 | -17 | 203 | 32.2 | 37.0 | 0.00 | 0.00 | 0.00 | ||
| 20260506235521 | -17 | 203 | 33.8 | 43.5 | 0.00 | 0.00 | 0.00 | ||
| 20260506235021 | -17 | 203 | 30.6 | 35.4 | 0.00 | 0.00 | 0.00 | ||
| 20260506234559 | -17 | 203 | 30.6 | 37.0 | 0.00 | 0.00 | 0.00 | ||
| 20260506234021 | -17 | 203 | 30.6 | 35.4 | 0.00 | 0.00 | 0.00 | ||
| 20260506233544 | -17 | 203 | 29.0 | 33.8 | 0.00 | 0.00 | 0.00 | ||
| 20260506233021 | -17 | 203 | 30.6 | 35.4 | 0.00 | 0.00 | 0.00 |